Lid_Strength_Index
2 2 2 1 1 1 1 1 2 2 2 2 1 1 2 2 3 3 3 3 2 2 2 2 2 3 2 3 2 3 3 4 5 4 4 3 2 2 1 1 -0 1 1
2 2 2 1 1 1 1 1 1 2 2 2 2 2 1 2 2 2 3 2 3 2 2 2 2 2 2 3 3 3 4 3 4 5 4 3 3 2 2 2 1 -0 0
2 2 2 2 2 2 1 1 1 1 2 2 2 2 1 2 3 2 2 3 2 2 2 2 2 3 3 3 3 3 3 2 3 4 4 3 3 3 3 2 2 2 1
2 2 2 2 2 1 1 1 1 1 2 2 2 2 2 1 2 2 2 3 3 2 2 2 2 2 3 2 3 2 2 2 4 4 5 4 3 3 3 4 4 3 2
2 2 2 2 2 1 1 1 1 1 1 2 3 3 2 2 2 2 3 3 3 3 3 2 2 1 1 2 2 2 2 3 3 4 4 5 5 5 5 4 4 3 3
2 3 2 2 2 2 2 1 1 1 1 1 2 2 2 2 4 4 3 3 3 3 3 3 2 0 1 2 2 2 2 2 3 4 5 4 4 4 4 3 4 4 5
3 2 2 2 2 2 2 2 2 2 1 2 2 2 2 2 5 5 4 2 3 3 3 3 3 1 1 2 2 2 2 2 2 4 4 4 4 3 3 5 4 4 4
3 3 2 2 2 2 2 2 2 2 2 2 2 2 2 2 6 6 4 2 3 3 3 3 3 2 2 2 2 3 3 3 3 3 3 2 2 2 3 3 3 4 3
3 3 2 2 2 2 2 2 2 2 2 2 2 2 3 3 7 7 6 3 3 3 3 3 3 3 3 4 3 3 3 3 2 2 2 2 2 2 1 2 3 3 5
3 3 2 2 2 3 2 2 2 2 2 2 2 3 4 3 9 10 6 4 4 4 4 3 4 3 6 6 3 3 3 3 2 2 1 3 2 3 1 2 3 4 5
2 2 2 2 2 2 2 2 2 2 2 2 2 2 3 3 8 11 8 4 4 4 3 3 3 6 8 8 5 2 2 3 3 3 4 5 5 5 4 3 2 2 4
2 2 2 2 2 2 2 2 2 2 3 3 3 2 3 5 9 10 9 7 5 4 3 2 2 7 8 8 7 5 6 4 4 5 5 6 5 4 3 4 4 1 0
2 3 3 2 2 2 2 3 3 2 3 3 4 3 4 4 5 10 11 9 7 3 2 4 8 10 10 9 7 6 5 4 5 6 6 6 4 4 4 5 5 5 5
3 3 3 3 3 2 2 2 3 3 3 4 4 4 4 4 5 7 7 7 7 5 7 6 6 6 7 6 6 5 4 5 6 6 6 5 4 5 6 6 6 7 7
3 3 3 3 3 10 13 13 7 6 4 4 4 4 3 3 2 5 7 5 5 7 7 6 6 6 7 6 6 5 6 6 6 6 5 5 5 6 6 7 7 7 8
4 3 4 7 7 8 8 8 14 13 12 12 11 8 4 7 10 11 12 12 12 11 6 5 5 7 7 6 5 6 6 5 6 6 5 5 6 7 7 7 7 9 9
6 7 7 8 7 7 5 6 8 8 9 10 12 11 10 10 13 14 13 12 12 9 6 6 6 6 6 6 6 6 5 5 5 5 5 7 7 7 7 8 9 9 9
6 8 6 6 5 5 5 5 5 4 4 6 12 11 12 13 14 14 13 10 6 7 5 5 5 5 5 5 5 5 6 7 7 8 9 8 8 8 8 9 9 9 9
3 3 3 3 4 4 3 4 5 5 6 10 10 11 14 15 14 13 11 4 5 7 7 7 6 5 5 6 7 7 7 8 8 8 9 8 8 9 10 9 9 7 8
3 5 4 4 4 4 4 5 6 7 8 7 6 8 11 9 8 8 8 7 7 7 7 7 7 6 6 7 7 7 7 8 8 9 9 9 9 9 9 9 9 9 9
3 3 3 3 4 4 4 5 6 7 6 6 7 8 10 6 7 8 9 9 7 7 7 7 7 7 7 7 8 8 8 9 9 9 9 10 10 9 9 9 9 9 9
4 3 3 3 4 4 5 6 7 7 7 7 9 10 11 8 7 8 9 8 9 7 7 7 7 7 7 7 8 9 9 9 9 9 10 10 9 9 9 9 9 9 10
5 4 4 4 4 5 5 5 6 6 7 7 7 8 9 8 8 9 8 6 6 7 7 6 6 7 7 7 8 8 8 9 9 9 9 9 9 9 9 9 9 10 10
4 4 4 5 5 5 4 4 5 6 5 5 6 7 7 7 7 6 5 5 6 6 6 6 7 8 8 9 9 9 9 9 9 9 9 10 10 10 10 9 10 10 9
4 4 4 4 4 3 3 4 3 4 4 5 5 5 5 6 5 5 6 6 5 5 5 6 6 7 8 9 9 9 10 12 10 11 11 11 11 11 10 9 10 10 9
2 2 3 3 3 4 3 4 4 4 4 4 5 5 5 5 5 4 5 6 6 5 5 6 6 6 7 8 8 9 12 12 11 12 11 12 12 11 10 9 9 10 9